Location: St. Louis
(38.6270°N, 90.1994°W)
Time: 04:39:28
(UTC-05:00)

RS-15 - Pass Details

Date: 04 February 2022
Orbit: 1881 x 2163 km, 64.8° (Epoch: 20 May)

Event Time Altitude Azimuth Distance (km) Brightness Sun altitude
Rises 22:15:46 0° 319° (NW) 5,633 10.9 -55.4°
Reaches altitude 10° 22:20:24 10° 333° (NNW) 4,658 10.3 -56.2°
Enters shadow 22:27:11 23° 7° (N) 3,725 9.5 -57.3°
